TimeMDT,TemperatureF,Dew PointF,Humidity,Sea Level PressureIn,VisibilityMPH,Wind Direction,Wind SpeedMPH,Gust SpeedMPH,PrecipitationIn,Events,Conditions,WindDirDegrees,DateUTC
12:53 AM,64.0,57.9,80,29.88,10.0,SSE,3.5,-,N/A,,Clear,160,2013-08-25 06:53:00
1:53 AM,68.0,57.0,68,29.87,10.0,Calm,Calm,-,N/A,,Partly Cloudy,0,2013-08-25 07:53:00
2:53 AM,64.9,57.0,75,29.86,10.0,North,10.4,-,N/A,,Clear,10,2013-08-25 08:53:00
3:53 AM,63.0,57.9,84,29.89,10.0,SSW,3.5,-,N/A,,Clear,200,2013-08-25 09:53:00
4:53 AM,64.0,57.0,78,29.89,10.0,NNW,3.5,-,N/A,,Clear,340,2013-08-25 10:53:00
5:53 AM,60.1,57.0,90,29.93,10.0,Calm,Calm,-,N/A,,Clear,0,2013-08-25 11:53:00
6:53 AM,62.1,57.0,84,29.94,10.0,North,3.5,-,N/A,,Clear,350,2013-08-25 12:53:00
7:53 AM,66.0,57.0,73,29.95,10.0,West,3.5,-,N/A,,Clear,280,2013-08-25 13:53:00
8:53 AM,72.0,55.9,57,29.96,10.0,WNW,5.8,-,N/A,,Clear,290,2013-08-25 14:53:00
9:53 AM,79.0,55.0,44,29.94,10.0,West,5.8,-,N/A,,Clear,260,2013-08-25 15:53:00
10:53 AM,84.9,50.0,30,29.95,10.0,West,8.1,-,N/A,,Clear,260,2013-08-25 16:53:00
11:53 AM,89.1,48.0,24,29.93,10.0,West,6.9,-,N/A,,Clear,280,2013-08-25 17:53:00
12:53 PM,90.0,46.9,23,29.93,10.0,West,4.6,-,N/A,,Clear,270,2013-08-25 18:53:00
1:53 PM,90.0,44.1,20,29.91,10.0,SW,5.8,-,N/A,,Clear,220,2013-08-25 19:53:00
2:53 PM,93.0,46.0,20,29.89,10.0,WSW,6.9,-,N/A,,Clear,250,2013-08-25 20:53:00
3:53 PM,93.0,45.0,19,29.88,10.0,Calm,Calm,-,N/A,,Clear,0,2013-08-25 21:53:00
4:53 PM,91.9,43.0,18,29.88,10.0,Calm,Calm,-,N/A,,Clear,0,2013-08-25 22:53:00
5:53 PM,90.0,48.0,24,29.89,10.0,WSW,3.5,-,N/A,,Clear,240,2013-08-25 23:53:00
6:53 PM,86.0,50.0,29,29.89,10.0,WNW,3.5,-,N/A,,Clear,290,2013-08-26 00:53:00
7:53 PM,80.1,53.1,39,29.91,10.0,WNW,8.1,-,N/A,,Clear,300,2013-08-26 01:53:00
8:53 PM,78.1,54.0,43,29.93,10.0,West,6.9,-,N/A,,Clear,260,2013-08-26 02:53:00
9:53 PM,75.9,54.0,46,29.92,10.0,West,4.6,-,N/A,,Partly Cloudy,270,2013-08-26 03:53:00
10:53 PM,73.9,54.0,50,29.92,10.0,West,3.5,-,N/A,,Clear,280,2013-08-26 04:53:00
11:53 PM,71.1,55.9,59,29.90,10.0,Calm,Calm,-,N/A,,Clear,0,2013-08-26 05:53:00